"Pseudo-MPEC" for P116gvW

Created 2020 Sep 19 22:07:28 UT using Find_Orb

Click here for an explanation of pseudo-MPECs

 
 Astrometry: 
     P116gvW  C2020 09 16b$ZAstrometryxG2X7=Z:!]Esredacted;ScclickH[,2rGsa4L$F51
     P116gvW  C2020 09 16Z3here1Bfor7ku^WSOt4iOKiI$RK_8^2explanation_1MM]+-p*F51
     P116gvW  C2020 09 16ab%E?XN:FrCralPmr6+VHDgur%%OB/7^h6$GerG];sxbJkZ`P6bNF51

Station data:
(F51) Pan-STARRS 1, Haleakala  (N20.707235 W156.255910)  US/Hawaii.
   Observers N. Primak, A. Schultz, S. Watters, J. Thiel, T. Goggia. Measurer
   PS1 Science Consortium. 1.8-m Ritchey-Chrétien + CCD.

Orbital elements:  P116gvW
   Perihelion 2020 Jul 18.652579 +/- 47.9 TT = 15:39:42 (JD 2459049.152579)
Epoch 2020 Sep 16.0 TT = JDT 2459108.5   Earth MOID: 0.2537   Ma: 0.0144
M  17.21975397 +/- 19               (J2000 ecliptic)          AutoNEOCP
n   0.29015167 +/- 0.26             Peri.   57.81441 +/- 100
a   2.25970973 +/- 1.35             Node   246.26734 +/- 54
e   0.4472363 +/- 0.251             Incl.    6.18357 +/- 4.1
P   3.40                   H 22.2   G  0.15   U 11.8  SR
q 1.24908534 +/- 0.382    Q 3.27033412 +/- 74.1
From 3 observations 2020 Sept. 16 (33.2 min); mean residual 0".22
Residuals in arcseconds: 
200916 F51  .07+  .21-    200916 F51  .14-  .43+    200916 F51  .07+  .21-    

Ephemerides (geocentric):
Date (UTC) HH   RA              Dec         delta   r     elong  mag " sig PA
---- -- -- --  -------------   -----------  ------ ------ -----  --- ---- ---
2020 09 19 22  22 34 51.817   +12 39 19.68  .42130 1.4017 156.9 22.0  31d  12
2020 09 19 23  22 34 53.245   +12 38 43.69  .42152 1.4019 156.9 22.0  32d   6
2020 09 20 00  22 34 54.675   +12 38 07.70  .42175 1.4020 156.9 22.0  32d   7
2020 09 20 01  22 34 56.107   +12 37 31.71  .42197 1.4022 156.9 22.0  32d   7
2020 09 20 02  22 34 57.540   +12 36 55.72  .42219 1.4024 156.9 22.0  32d   7
2020 09 20 03  22 34 58.976   +12 36 19.74  .42241 1.4026 156.9 22.0  32d   7
2020 09 20 04  22 35 00.413   +12 35 43.75  .42264 1.4028 156.9 22.0  32d   7
2020 09 20 05  22 35 01.852   +12 35 07.77  .42286 1.4029 156.8 22.0  32d   7
2020 09 20 06  22 35 03.293   +12 34 31.80  .42308 1.4031 156.8 22.0  32d   7
2020 09 20 07  22 35 04.737   +12 33 55.82  .42331 1.4033 156.8 22.0  32d   7
2020 09 20 08  22 35 06.182   +12 33 19.85  .42353 1.4035 156.8 22.0  32d   7
2020 09 20 09  22 35 07.629   +12 32 43.88  .42375 1.4037 156.8 22.0  32d   7
2020 09 20 10  22 35 09.078   +12 32 07.91  .42398 1.4039 156.8 22.0  32d   7
2020 09 20 11  22 35 10.529   +12 31 31.95  .42420 1.4040 156.8 22.0  32d   7
2020 09 20 12  22 35 11.982   +12 30 55.99  .42443 1.4042 156.8 22.0  32d   7
2020 09 20 13  22 35 13.436   +12 30 20.03  .42465 1.4044 156.8 22.0  32d   7
2020 09 20 14  22 35 14.893   +12 29 44.08  .42488 1.4046 156.8 22.0  32d   7
2020 09 20 15  22 35 16.352   +12 29 08.13  .42510 1.4048 156.7 22.0  32d   7
2020 09 20 16  22 35 17.813   +12 28 32.18  .42533 1.4050 156.7 22.0  32d   7
2020 09 20 17  22 35 19.275   +12 27 56.23  .42556 1.4051 156.7 22.0  32d   7
2020 09 20 18  22 35 20.740   +12 27 20.29  .42578 1.4053 156.7 22.0  32d   7
2020 09 20 19  22 35 22.206   +12 26 44.36  .42601 1.4055 156.7 22.0  32d   2
2020 09 20 20  22 35 23.675   +12 26 08.43  .42624 1.4057 156.7 22.0  32d   2
2020 09 20 21  22 35 25.145   +12 25 32.50  .42646 1.4059 156.7 22.0  32d   2
2020 09 20 22  22 35 26.618   +12 24 56.57  .42669 1.4061 156.7 22.0  32d   2
2020 09 20 23  22 35 28.092   +12 24 20.65  .42692 1.4062 156.7 22.0  32d   2
2020 09 21 00  22 35 29.568   +12 23 44.74  .42714 1.4064 156.6 22.0  32d   2
2020 09 21 01  22 35 31.047   +12 23 08.83  .42737 1.4066 156.6 22.0  32d   2
2020 09 21 02  22 35 32.527   +12 22 32.92  .42760 1.4068 156.6 22.0  32d   2
2020 09 21 03  22 35 34.009   +12 21 57.02  .42783 1.4070 156.6 22.0  32d   2
2020 09 21 04  22 35 35.494   +12 21 21.12  .42806 1.4072 156.6 22.0  32d   2
2020 09 21 05  22 35 36.980   +12 20 45.23  .42829 1.4073 156.6 22.0  32d   2
2020 09 21 06  22 35 38.468   +12 20 09.34  .42852 1.4075 156.6 22.0  32d   2
2020 09 21 07  22 35 39.958   +12 19 33.46  .42875 1.4077 156.6 22.0  32d   2
2020 09 21 08  22 35 41.450   +12 18 57.58  .42898 1.4079 156.6 22.0  32d   2
2020 09 21 09  22 35 42.944   +12 18 21.71  .42920 1.4081 156.5 22.0  32d   2
2020 09 21 10  22 35 44.440   +12 17 45.84  .42943 1.4083 156.5 22.0  32d   2
2020 09 21 11  22 35 45.938   +12 17 09.98  .42967 1.4084 156.5 22.0  32d   2
2020 09 21 12  22 35 47.438   +12 16 34.13  .42990 1.4086 156.5 22.0  32d   2
2020 09 21 13  22 35 48.940   +12 15 58.28  .43013 1.4088 156.5 22.0  32d   2
2020 09 21 14  22 35 50.444   +12 15 22.43  .43036 1.4090 156.5 22.0  32d   2
2020 09 21 15  22 35 51.950   +12 14 46.60  .43059 1.4092 156.5 22.0  32d   2
2020 09 21 16  22 35 53.458   +12 14 10.76  .43082 1.4094 156.5 22.0  32d   2
2020 09 21 17  22 35 54.968   +12 13 34.94  .43105 1.4095 156.5 22.0  32d   2
2020 09 21 18  22 35 56.480   +12 12 59.12  .43128 1.4097 156.4 22.0  32d   2
2020 09 21 19  22 35 57.994   +12 12 23.30  .43152 1.4099 156.4 22.0  32d   2
2020 09 21 20  22 35 59.510   +12 11 47.50  .43175 1.4101 156.4 22.0  32d   2
2020 09 21 21  22 36 01.028   +12 11 11.70  .43198 1.4103 156.4 22.0  32d   2